Location: Guayaquil
(2.1667°S, 79.9000°W)
Time: 06:25:27
(UTC-05:00)

N. Korean satellite - Visible Passes

Search period start: 27 September 2022 00:00
Search period end: 07 October 2022 00:00
Orbit: 427 x 468 km, 97.3° (Epoch: 26 September)

Date Brightness Start Highest point End Pass type
(mag) Time Alt. Az. Time Alt. Az. Time Alt. Az.
27 Sep 7.1 05:35:46 10° NNW 05:38:39 29° W 05:41:33 10° SW visible
28 Sep 7.2 04:59:54 10° NNE 05:03:04 51° E 05:06:18 10° S visible
29 Sep 9.8 04:26:10 10° ENE 04:27:31 12° ESE 04:28:53 10° SE visible
30 Sep 6.3 05:21:07 10° N 05:24:19 56° W 05:27:35 10° SSW visible
01 Oct 8.6 04:45:52 10° NE 04:48:41 27° ESE 04:51:34 10° SSE visible
03 Oct 6.6 05:06:29 10° NNE 05:09:45 71° E 05:13:05 10° S visible
04 Oct 9.6 04:32:00 10° ENE 04:34:04 16° ESE 04:36:08 10° SE visible
05 Oct 6.7 05:27:35 10° N 05:30:43 42° W 05:33:55 10° SSW visible
06 Oct 8.1 04:51:54 10° NNE 04:54:57 35° ESE 04:58:03 10° S visible
